User: anonymous
Location: UBC Liquid-Mirror Observatory
(49.2876°N, 122.5728°W)
Time: 12:17:45
(UTC-07:00)
Language:

Cosmos 1743 Rocket - Orbit

View from above orbital plane
View from above orbital plane
View from above satellite
View from above satellite

Ground track
Ground track

The orbit data is extracted from the following two-line orbital elements,

1 16720U 86034B   14204.81642211  .00000148  00000-0  15312-4 0  5033
2 16720 082.5565 148.8799 0019987 000.1060 059.5156 14.82758472522240
Epoch (UTC): 23 July 2014 19:35:38
Eccentricity: 0.0019987
inclination: 82.5565°
perigee height: 606 km
apogee height: 634 km
right ascension of ascending node: 148.8799°
argument of perigee: 0.1060°
revolutions per day: 14.82758472
mean anomaly at epoch: 59.5156°
orbit number at epoch: 52224

The dashed part of the orbit path shows where the satellite is in the earth's shadow,  

DLR